Miscellaneous Local Product
Issued by NWS North Platte, NE

Home | Current Version | Previous Version | Graphics & Text | Print | Product List | Glossary On
Versions: 1 2 3 4 5 6 7 8 9 10 11 12 13 14 15 16 17 18 19 20 21 22 23 24 25 26 27 28 29 30 31 32 33 34 35 36 37 38 39 40 41 42 43 44 45 46 47 48 49 50
000
AXUS43 KLBF 262310
MISLBF


WESTERN AND NORTH CENTRAL NEBRASKA HOURLY WEATHER ROUNDUP
NATIONAL WEATHER SERVICE NORTH PLATTE NE
600 PM CDT TUE MAY 26 2015

***STATIONS NOT REPORTING VARIABLES SUCH AS SKY/WEATHER OR
PRESSURE ARE PROVIDED BY THE NEBRASKA DEPARTMENT OF
ROADS...RAWS...AND APRS NETWORKS...AND ARE NOT UNDER
NATIONAL WEATHER SERVICE QUALITY CONTROL***

...OBSERVATIONS IN AND NEAR THE EASTERN PANHANDLE OF NEBRASKA...

CITY           SKY/WX    TMP DP  RH WIND       PRES   REMARKS
PINE RIDGE     SUNNY     68  46  45 S7        29.97F
CHADRON        MOSUNNY   70  48  45 S6        29.96S
ALLIANCE       PTSUNNY   65  48  54 E7        29.99S
SIDNEY         MOSUNNY   64  52  64 SE8       30.01F
WHITECLAY        N/A     69  47  44 E5          N/A
BIG SPRINGS      N/A     69  50  50 CALM        N/A
$$

...OBSERVATIONS IN NORTH CENTRAL NEBRASKA...

CITY           SKY/WX    TMP DP  RH WIND       PRES   REMARKS
VALENTINE      MOSUNNY   74  44  34 VRB3      29.94F
THEDFORD       MOSUNNY   69  47  46 NE3       29.98S
AINSWORTH      MOSUNNY   71  47  41 N6        29.94S
O`NEILL        PTSUNNY   69  53  57 W9        29.91F
ORD            PTSUNNY   69  51  52 NW9       29.92F
BROKEN BOW     SUNNY     71  49  45 N10       29.96S
BROWNLEE         N/A     74  36  24 NE7         N/A
VALENTINE NWR    N/A     71  47  41 N6G13       N/A
SPRINGVIEW       N/A     74  52  45 NW8         N/A
HALSEY           N/A     71  46  41 NW6         N/A
BREWSTER         N/A     76  51  41 NW9         N/A
ROSE             N/A     76  52  43 W7          N/A
NEWPORT          N/A     70  56  61 SE6         N/A
SARGENT          N/A     70  50  49 CALM        N/A
COMSTOCK         N/A     73  52  46 E8          N/A
EWING            N/A     71  54  55 NW7G17      N/A
$$

...OBSERVATIONS IN SOUTHWEST NEBRASKA AND FAR NORTHEAST COLORADO...

CITY           SKY/WX    TMP DP  RH WIND       PRES   REMARKS
WRAY           MOCLDY    70  47  44 CALM      29.99S
HOLYOKE        FAIR      72  52  49 SE3       30.00S
IMPERIAL       SUNNY     71  49  45 NE3       29.99S
OGALLALA       MOSUNNY   67  48  49 CALM      29.99S
NORTH PLATTE   SUNNY     70  46  42 N6        29.98R
MCCOOK         MOSUNNY   72  48  42 NE6       29.97S
LEXINGTON      MOSUNNY   70  52  52 N6        29.97S
PAXTON           N/A     70  50  49 E6          N/A
GOTHENBURG       N/A     70  43  37 N7          N/A
CALLAWAY         N/A     70  52  52 CALM        N/A
$$

...NORTH PLATTE AREA...

CITY           SKY/WX    TMP DP  RH WIND       PRES   REMARKS
AIRPORT        SUNNY     70  46  42 N6        29.98R
DOWNTOWN         N/A     71  46  41 N3          N/A
$$

...SOME WEATHER OBSERVATIONS FROM AROUND THE REGION...

CITY           SKY/WX    TMP DP  RH WIND       PRES   REMARKS
DENVER         PTSUNNY   67  42  40 VRB7      30.01F THUNDER
LARAMIE        PTSUNNY   57  36  45 SE6       30.07R
CHEYENNE       LGT RAIN  63  43  48 CALM      30.05R
SCOTTSBLUFF    PTSUNNY   69  49  48 SE9       29.97F
RAPID CITY     PTSUNNY   69  49  48 S10       29.95F
PIERRE         SUNNY     77  50  38 NW15      29.86F
WINNER         FAIR      77  46  33 N10       29.89F
SIOUX FALLS    CLOUDY    68  53  58 N9        29.83S
OMAHA          CLOUDY    66  58  75 NW8       29.86S
GRAND ISLAND   PTSUNNY   71  49  45 NW15      29.93R
KANSAS CITY    MOSUNNY   76  61  59 W14       29.87S
WICHITA        PTSUNNY   80  58  46 NW7       29.91S
HAYS           MOSUNNY   77  54  44 N10       29.94F
LIBERAL        SUNNY     77  50  38 CALM      29.99S
GOODLAND       PTSUNNY   73  48  41 E5        30.00R
$$



USA.gov is the U.S. government's official web portal to all federal, state and local government web resources and services.